TimeMDT,TemperatureF,Dew PointF,Humidity,Sea Level PressureIn,VisibilityMPH,Wind Direction,Wind SpeedMPH,Gust SpeedMPH,PrecipitationIn,Events,Conditions,WindDirDegrees,DateUTC
12:18 AM,48.2,23.0,37,30.22,10.0,NNW,9.2,-,N/A,,Clear,330,2012-10-11 06:18:00
12:40 AM,46.4,23.0,40,30.22,10.0,NNW,12.7,-,N/A,,Clear,340,2012-10-11 06:40:00
1:15 AM,42.8,23.0,46,30.22,10.0,NW,6.9,-,N/A,,Clear,310,2012-10-11 07:15:00
1:22 AM,41.0,21.2,45,30.22,10.0,NW,9.2,-,N/A,,Clear,320,2012-10-11 07:22:00
1:44 AM,42.8,24.8,49,30.23,10.0,NNW,11.5,-,N/A,,Clear,330,2012-10-11 07:44:00
2:02 AM,42.8,24.8,49,30.23,10.0,NNW,8.1,-,N/A,,Clear,330,2012-10-11 08:02:00
2:22 AM,42.8,23.0,46,30.24,10.0,NNW,11.5,-,N/A,,Clear,330,2012-10-11 08:22:00
2:44 AM,46.4,23.0,40,30.23,10.0,North,6.9,19.6,N/A,,Clear,350,2012-10-11 08:44:00
3:03 AM,42.8,23.0,46,30.23,10.0,NNW,9.2,-,N/A,,Clear,340,2012-10-11 09:03:00
3:21 AM,41.0,23.0,49,30.23,10.0,North,9.2,-,N/A,,Clear,350,2012-10-11 09:21:00
3:42 AM,41.0,23.0,49,30.23,10.0,NW,9.2,-,N/A,,Clear,320,2012-10-11 09:42:00
4:02 AM,37.4,21.2,52,30.23,10.0,NNW,8.1,-,N/A,,Clear,340,2012-10-11 10:02:00
4:22 AM,41.0,23.0,49,30.23,10.0,NW,8.1,-,N/A,,Clear,320,2012-10-11 10:22:00
4:43 AM,41.0,23.0,49,30.23,10.0,NW,15.0,-,N/A,,Clear,320,2012-10-11 10:43:00
5:03 AM,41.0,23.0,49,30.23,10.0,NNW,13.8,-,N/A,,Clear,340,2012-10-11 11:03:00
5:23 AM,41.0,23.0,49,30.24,10.0,NNW,10.4,-,N/A,,Clear,330,2012-10-11 11:23:00
5:43 AM,37.4,23.0,56,30.25,10.0,NNW,9.2,-,N/A,,Clear,330,2012-10-11 11:43:00
6:03 AM,41.0,23.0,49,30.25,10.0,NNW,15.0,-,N/A,,Clear,330,2012-10-11 12:03:00
6:25 AM,37.4,21.2,52,30.25,10.0,NNW,9.2,-,N/A,,Clear,330,2012-10-11 12:25:00
6:46 AM,37.4,23.0,56,30.26,10.0,NNW,11.5,-,N/A,,Clear,340,2012-10-11 12:46:00
7:01 AM,41.0,23.0,49,30.26,10.0,NW,11.5,-,N/A,,Clear,320,2012-10-11 13:01:00
7:20 AM,37.4,21.2,52,30.26,10.0,NW,11.5,-,N/A,,Clear,320,2012-10-11 13:20:00
7:55 AM,41.0,23.0,49,30.28,10.0,NNW,12.7,-,N/A,,Clear,330,2012-10-11 13:55:00
8:06 AM,42.8,23.0,46,30.28,10.0,NNW,9.2,-,N/A,,Clear,330,2012-10-11 14:06:00
8:28 AM,44.6,23.0,43,30.29,10.0,NW,9.2,-,N/A,,Clear,320,2012-10-11 14:28:00
8:48 AM,46.4,23.0,40,30.29,10.0,NNW,12.7,-,N/A,,Clear,330,2012-10-11 14:48:00
9:13 AM,50.0,23.0,35,30.29,10.0,NNW,9.2,-,N/A,,Clear,330,2012-10-11 15:13:00
9:33 AM,53.6,23.0,30,30.29,10.0,NW,6.9,-,N/A,,Clear,310,2012-10-11 15:33:00
9:51 AM,55.4,23.0,29,30.29,10.0,Calm,Calm,-,N/A,,Clear,0,2012-10-11 15:51:00
10:15 AM,57.2,24.8,29,30.29,10.0,Calm,Calm,-,N/A,,Clear,0,2012-10-11 16:15:00
10:34 AM,59.0,24.8,27,30.29,10.0,SSE,6.9,-,N/A,,Clear,160,2012-10-11 16:34:00
10:55 AM,60.8,24.8,25,30.29,10.0,SE,6.9,-,N/A,,Clear,130,2012-10-11 16:55:00
11:13 AM,60.8,24.8,25,30.29,10.0,SE,6.9,-,N/A,,Clear,130,2012-10-11 17:13:00
11:52 AM,64.4,24.8,22,30.28,10.0,ESE,10.4,-,N/A,,Clear,120,2012-10-11 17:52:00
12:10 PM,64.4,24.8,22,30.27,10.0,SSE,10.4,-,N/A,,Clear,150,2012-10-11 18:10:00
12:32 PM,66.2,24.8,21,30.26,10.0,SSE,9.2,-,N/A,,Clear,150,2012-10-11 18:32:00
12:55 PM,68.0,24.8,20,30.25,10.0,SE,6.9,16.1,N/A,,Clear,140,2012-10-11 18:55:00
1:07 PM,66.2,23.0,19,30.24,10.0,SE,3.5,-,N/A,,Clear,140,2012-10-11 19:07:00
1:33 PM,68.0,23.0,18,30.23,10.0,South,10.4,-,N/A,,Clear,170,2012-10-11 19:33:00
1:52 PM,71.6,24.8,17,30.23,10.0,South,8.1,17.3,N/A,,Clear,170,2012-10-11 19:52:00
2:15 PM,71.6,24.8,17,30.22,10.0,South,6.9,-,N/A,,Clear,180,2012-10-11 20:15:00
2:50 PM,73.4,24.8,16,30.21,10.0,SSE,10.4,18.4,N/A,,Clear,160,2012-10-11 20:50:00
3:15 PM,69.8,23.0,17,30.21,10.0,South,8.1,17.3,N/A,,Scattered Clouds,190,2012-10-11 21:15:00
3:27 PM,68.0,21.2,17,30.21,10.0,SE,9.2,-,N/A,,Scattered Clouds,140,2012-10-11 21:27:00
4:12 PM,73.4,23.0,15,30.20,10.0,SSE,12.7,-,N/A,,Scattered Clouds,160,2012-10-11 22:12:00
4:30 PM,73.4,23.0,15,30.19,10.0,South,9.2,-,N/A,,Clear,180,2012-10-11 22:30:00
4:55 PM,73.4,23.0,15,30.19,10.0,South,11.5,-,N/A,,Clear,190,2012-10-11 22:55:00
5:15 PM,73.4,23.0,15,30.19,10.0,South,9.2,17.3,N/A,,Clear,170,2012-10-11 23:15:00
5:35 PM,71.6,23.0,16,30.19,10.0,SSW,10.4,-,N/A,,Clear,200,2012-10-11 23:35:00
5:45 PM,68.0,21.2,17,30.19,10.0,South,8.1,-,N/A,,Clear,180,2012-10-11 23:45:00
6:06 PM,68.0,21.2,17,30.19,10.0,South,9.2,-,N/A,,Clear,190,2012-10-12 00:06:00
6:33 PM,62.6,24.8,24,30.19,10.0,Calm,Calm,-,N/A,,Clear,0,2012-10-12 00:33:00
7:15 PM,62.6,23.0,22,30.19,10.0,Calm,Calm,-,N/A,,Mostly Cloudy,0,2012-10-12 01:15:00
7:35 PM,60.8,23.0,23,30.21,10.0,SSW,9.2,-,N/A,,Overcast,200,2012-10-12 01:35:00
7:55 PM,66.2,23.0,19,30.21,10.0,SSE,8.1,-,N/A,,Overcast,150,2012-10-12 01:55:00
8:07 PM,64.4,23.0,21,30.21,10.0,South,6.9,-,N/A,,Overcast,170,2012-10-12 02:07:00
8:51 PM,64.4,24.8,22,30.23,10.0,NNW,5.8,-,N/A,,Overcast,330,2012-10-12 02:51:00
9:12 PM,64.4,26.6,24,30.23,10.0,North,10.4,-,N/A,,Overcast,10,2012-10-12 03:12:00
9:52 PM,60.8,28.4,29,30.26,10.0,ESE,4.6,-,N/A,,Overcast,120,2012-10-12 03:52:00
10:15 PM,60.8,28.4,29,30.28,10.0,SSE,3.5,-,N/A,,Overcast,150,2012-10-12 04:15:00
10:33 PM,60.8,30.2,31,30.28,10.0,SE,6.9,-,N/A,,Overcast,130,2012-10-12 04:33:00
10:55 PM,60.8,32.0,34,30.29,10.0,South,10.4,24.2,N/A,,Overcast,190,2012-10-12 04:55:00
11:15 PM,60.8,32.0,34,30.29,10.0,SW,8.1,-,N/A,,Overcast,220,2012-10-12 05:15:00
11:35 PM,59.0,32.0,36,30.29,10.0,SE,3.5,-,N/A,,Overcast,130,2012-10-12 05:35:00
11:55 PM,59.0,32.0,36,30.29,10.0,Calm,Calm,-,N/A,,Overcast,0,2012-10-12 05:55:00